Overview Statistics Trail Chart Weather Telemetry Raw packets
 

This is the latest recevied weather packets stored in our database for station/object NO9B. If no packets are shown the sender has not sent any weather packets the latest 10 day(s).

<< 4 5 6 7 8 9 10 >>
Time Temp. Humidity Pressure Rain* Wind** Luminosity Snow
1788627724 26.67° C 80% 1017.7 hPa 0 mm - 89 W/m² -
1788627423 26.67° C 81% 1017.5 hPa 0 mm - 146 W/m² -
1788627119 26.11° C 82% 1017.8 hPa 0 mm - 638 W/m² -
1788626813 25.56° C 83% 1017.7 hPa 0 mm - 576 W/m² -
1788626513 25.56° C 85% 1017.8 hPa 0 mm - 129 W/m² -
1788626209 25.56° C 85% 1017.7 hPa 0 mm - 141 W/m² -
1788625906 25.56° C 85% 1017.7 hPa 0 mm - 146 W/m² -
1788625601 25.56° C 85% 1017.7 hPa 0 mm - 52 W/m² -
1788625301 25.56° C 85% 1017.6 hPa 0 mm - 80 W/m² -
1788625001 25.56° C 85% 1017.6 hPa 0 mm - 77 W/m² -
1788624699 25.56° C 85% 1017.7 hPa 0 mm - 130 W/m² -
1788624393 25° C 87% 1017.6 hPa 0 mm - 83 W/m² -
1788624093 25° C 86% 1017.6 hPa 0 mm - 89 W/m² -
1788623793 25° C 86% 1017.7 hPa 0 mm - 123 W/m² -
1788623491 25° C 86% 1017.7 hPa 0 mm - 84 W/m² -
1788623186 25° C 86% 1017.6 hPa 0 mm - 79 W/m² -
1788622881 25° C 86% 1017.6 hPa 0 mm - 130 W/m² -
1788622577 25° C 87% 1017.5 hPa 0 mm - 128 W/m² -
1788622272 25° C 86% 1017.6 hPa 0 mm - 68 W/m² -
1788621967 25° C 87% 1017.5 hPa 0 mm - 149 W/m² -
1788621662 25° C 86% 1017.5 hPa 0 mm - 116 W/m² -
1788621357 25° C 86% 1017.5 hPa 0 mm - 101 W/m² -
1788621053 25° C 87% 1017.3 hPa 0 mm - 91 W/m² -
1788620748 24.44° C 88% 1017.3 hPa 0 mm - 72 W/m² -
1788620446 24.44° C 88% 1017.3 hPa 0 mm - 75 W/m² -

* Rain latest hour (hover to see other rain measurements)
** Current wind speed in m/s (hover to see current wind gust speed)